Location: Bremen
(53.0833°N, 8.8000°E)
Time: 14:10:34
(UTC+02:00)

ISS - Pass Details

Date: 04 May 2025
Orbit: 416 x 419 km, 51.6° (Epoch: 14 May)

Event Time Altitude Azimuth Distance (km) Brightness Sun altitude
Exits shadow 04:34:32 - 274° (W) 1,843 -0.9 -9.4°
Reaches altitude 10° 04:35:23 10° 272° (W) 1,497 -1.4 -9.4°
Maximum altitude 04:38:41 57° 193° (SSW) 496 -3.7 -9.0°
Drops below altitude 10° 04:41:59 10° 113° (ESE) 1,495 -0.6 -8.6°
Sets 04:44:06 0° 110° (ESE) 2,358 0.5 -8.4°
